Regional Weather Roundup
Issued by NWS

Home | Current Version | Previous Version | Text Only | Print | Product List | Glossary On
Versions: 1 2 3 4 5 6 7 8 9 10 11 12 13 14 15 16 17 18 19 20 21 22 23 24 25 26 27 28 29 30 31 32 33 34 35 36 37 38 39 40 41 42 43 44 45 46 47 48 49 50
535
ASUS44 KLIX 240013
RWRLA
LOUISIANA WEATHER ROUNDUP
NATIONAL WEATHER SERVICE NEW ORLEANS LA
700 PM CDT SAT SEP 23 2017

NOTE: "FAIR" INDICATES FEW OR NO CLOUDS BELOW 12,000 FEET WITH NO
      SIGNIFICANT WEATHER AND/OR OBSTRUCTIONS TO VISIBILITY.
      SKY/WX - SKY CONDITION AND SIGNIFICANT WEATHER.
      TMP - AIR TEMPERATURE.    DP   - DEWPOINT TEMPERATURE.
      RH  - RELATIVE HUMIDITY.  PRES - PRESSURE.
      HX  - HEAT INDEX.         WCI  - WIND CHILL INDEX.

*  THESE STATIONS ARE NOT NWS OR FAA STATIONS AND ARE NOT UNDER
   NWS QUALITY CONTROL.

LAZ040-048-061>063-065-066-069-240100-
SOUTHEAST LOUISIANA

CITY           SKY/WX    TMP DP  RH WIND       PRES   REMARKS
N.O. INTL ARPT PTCLDY    85  68  56 E12       29.91R
6HR MIN TEMP:  85; 6HR MAX TEMP:  91;

N.O. LAKEFRONT NOT AVBL
N.O. DOWNTOWN* NOT AVBL
RESERVE*       FAIR      84  71  64 E3        29.91S
6HR MIN TEMP:  84; 6HR MAX TEMP:  92;

SLIDELL        NOT AVBL
BATON ROUGE    CLEAR     82  69  64 E6        29.90S
6HR MIN TEMP:  82; 6HR MAX TEMP:  92;

BOOTHVILLE     CLEAR     83  72  69 E10       29.92R
6HR MIN TEMP:  83; 6HR MAX TEMP:  88;

BELLE CHASSE   NOT AVBL
BOGALUSA*      FAIR      81  72  74 CALM      29.94R
6HR MIN TEMP:  81; 6HR MAX TEMP:  93;

GALLIANO*      PTCLDY    82  69  65 E3        29.90S
NEW ROADS*     FAIR      84  68  59 S7        29.90S
6HR MIN TEMP:  84; 6HR MAX TEMP:  91;

GONZALES*      FAIR      80  71  72 CALM      29.90F
6HR MIN TEMP:  80; 6HR MAX TEMP:  91;

HAMMOND*       CLEAR     81  68  65 S3        29.91S
HOUMA*         NOT AVBL
PORT FOURCHON* CLEAR     84  72  65 E13       29.91R

$$

LAZ041-044-053-054-240100-
SOUTHWEST LOUISIANA

CITY           SKY/WX    TMP DP  RH WIND       PRES   REMARKS
LAKE CHARLES   CLEAR     84  73  70 S5        29.87S
LAFAYETTE      NOT AVBL
PATTERSON      NOT AVBL
SALT POINT       N/A     75  72  90 NE3       29.89S
6HR MIN TEMP:  75; 6HR MAX TEMP:  91;

NEW IBERIA     CLEAR     75  66  73 S10         N/A
CHENAULT AIRPK PTCLDY    84  73  70 SW6       29.88R

$$

LAZ027-028-240100-
CENTRAL LOUISIANA

CITY           SKY/WX    TMP DP  RH WIND       PRES   REMARKS
FORT POLK      CLEAR     83  69  63 CALM      29.89R
6HR MIN TEMP:  83; 6HR MAX TEMP:  92;

ALEXANDRIA INT NOT AVBL
ALEXANDRIA     NOT AVBL

$$

LAZ001-002-240100-
NORTHWEST LOUISIANA

CITY           SKY/WX    TMP DP  RH WIND       PRES   REMARKS
SHREVEPORT     PTCLDY    87  68  52 SE6       29.89R
6HR MIN TEMP:  87; 6HR MAX TEMP:  94;

BARKSDALE AFB  CLEAR     85  70  60 E5        29.89R
6HR MIN TEMP:  85; 6HR MAX TEMP:  94;

DTN SHREVEPORT CLEAR     89  68  49 SE7       29.89R
6HR MIN TEMP:  89; 6HR MAX TEMP:  95;


$$

LAZ014-016-240100-
NORTHEAST LOUISIANA

CITY           SKY/WX    TMP DP  RH WIND       PRES   REMARKS
MONROE         CLEAR     82  72  71 CALM      29.92R
6HR MIN TEMP:  82; 6HR MAX TEMP:  94; 6HR PCP: TRACE;

TALLULAH       CLEAR     82  70  66 E5        29.92R
6HR MIN TEMP:  82; 6HR MAX TEMP:  92;


$$





USA.gov is the U.S. government's official web portal to all federal, state and local government web resources and services.